User: anonymous   Login
Location: Unspecified
(0.0000°N, 0.0000°E)
Time: 15:04:29
(UTC+00:00)
Language:

UWE-1 - Orbit

View from above orbital plane
View from above orbital plane
View from above satellite
View from above satellite

Ground track
Ground track

The orbit data is extracted from the following two-line orbital elements,

1 28892U 05043C   19077.83013883 +.00000107 +00000-0 +29514-4 0  9992
2 28892 097.9500 222.7572 0014924 282.6492 077.3042 14.63580613713899
Epoch (UTC): 18 March 2019 19:55:23
Eccentricity: 0.0014924
inclination: 97.9500°
perigee height: 671 km
apogee height: 692 km
right ascension of ascending node: 222.7572°
argument of perigee: 282.6492°
revolutions per day: 14.63580613
mean anomaly at epoch: 77.3042°
orbit number at epoch: 71389

The dashed part of the orbit path shows where the satellite is in the earth's shadow,  

DLR